| time (UTC) | temp F | wind direction | speed knots | gust knots | rain 1hr in | rain 24hr in | rain mn in | humidity % | barometer mb |
| 20260505140523 | 47 | 0 | 0.9 | 6.1 | 0.01 | 0.65 | 0.33 | 86 | 1012.2 |
| 20260505125024 | 47 | 0 | 0.0 | 0.0 | 0.07 | 0.64 | 0.32 | 83 | 1011.5 |
| 20260505124540 | 48 | 0 | 0.0 | 0.9 | 0.07 | 0.64 | 0.32 | 81 | 1011.4 |
| 20260505124023 | 49 | 0 | 0.0 | 4.3 | 0.06 | 0.63 | 0.31 | 79 | 1012.0 |
| 20260505123524 | 49 | 0 | 0.9 | 9.6 | 0.00 | 0.57 | 0.25 | 78 | 1011.3 |
| 20260505123048 | 49 | 0 | 1.7 | 9.6 | 0.00 | 0.57 | 0.25 | 78 | 1012.9 |
| 20260505122524 | 49 | 284 | 0.9 | 5.2 | 0.01 | 0.57 | 0.25 | 78 | 1012.1 |
| 20260505122024 | 48 | 0 | 0.9 | 4.3 | 0.01 | 0.57 | 0.25 | 78 | 1010.1 |
| 20260505121537 | 48 | 0 | 0.0 | 4.3 | 0.01 | 0.57 | 0.25 | 79 | 1010.0 |
| 20260505121025 | 48 | 13 | 0.0 | 4.3 | 0.01 | 0.57 | 0.25 | 78 | 1010.0 |
| 20260505120527 | 48 | 0 | 0.0 | 4.3 | 0.01 | 0.57 | 0.25 | 78 | 1010.1 |
| 20260505120043 | 48 | 0 | 0.0 | 5.2 | 0.01 | 0.57 | 0.25 | 78 | 1010.1 |
| 20260505115524 | 48 | 0 | 0.0 | 5.2 | 0.02 | 0.57 | 0.25 | 79 | 1009.9 |
| 20260505115024 | 48 | 0 | 0.0 | 2.6 | 0.05 | 0.57 | 0.25 | 80 | 1009.9 |
| 20260505114534 | 48 | 0 | 0.0 | 0.0 | 0.05 | 0.57 | 0.25 | 80 | 1010.2 |
| 20260505114025 | 48 | 0 | 0.0 | 0.9 | 0.05 | 0.57 | 0.25 | 79 | 1010.6 |
| 20260505113524 | 49 | 0 | 0.0 | 1.7 | 0.05 | 0.57 | 0.25 | 78 | 1010.7 |
| 20260505113040 | 49 | 0 | 0.0 | 5.2 | 0.05 | 0.57 | 0.25 | 77 | 1010.1 |
| 20260505112527 | 49 | 15 | 0.0 | 5.2 | 0.04 | 0.56 | 0.24 | 75 | 1009.8 |
| 20260505112024 | 49 | 72 | 0.0 | 4.3 | 0.04 | 0.56 | 0.24 | 76 | 1010.0 |
| 20260505111536 | 49 | 0 | 0.0 | 4.3 | 0.04 | 0.56 | 0.24 | 75 | 1009.2 |
| 20260505111025 | 49 | 34 | 0.9 | 10.4 | 0.04 | 0.56 | 0.24 | 73 | 1009.7 |
| 20260505110525 | 50 | 0 | 1.7 | 10.4 | 0.04 | 0.56 | 0.24 | 70 | 1009.6 |
| 20260505102024 | 52 | 28 | 1.7 | 7.8 | 0.00 | 0.52 | 0.20 | 61 | 1008.9 |
| 20260505101536 | 52 | 30 | 2.6 | 7.8 | 0.00 | 0.52 | 0.20 | 61 | 1009.0 |
| 20260505101027 | 52 | 0 | 2.6 | 7.8 | 0.00 | 0.52 | 0.20 | 61 | 1009.0 |
| 20260505100524 | 52 | 9 | 3.5 | 7.8 | 0.00 | 0.52 | 0.20 | 62 | 1009.0 |
| 20260505100038 | 52 | 19 | 1.7 | 7.8 | 0.00 | 0.52 | 0.20 | 62 | 1009.0 |
| 20260505095524 | 52 | 21 | 1.7 | 7.0 | 0.00 | 0.52 | 0.20 | 63 | 1009.2 |
| 20260505095023 | 52 | 5 | 1.7 | 6.1 | 0.00 | 0.52 | 0.20 | 63 | 1009.1 |
| 20260505094539 | 52 | 52 | 1.7 | 7.0 | 0.00 | 0.52 | 0.20 | 63 | 1009.6 |
| 20260505094025 | 52 | 19 | 1.7 | 7.0 | 0.00 | 0.52 | 0.20 | 62 | 1009.9 |
| 20260505093526 | 52 | 0 | 1.7 | 7.8 | 0.00 | 0.52 | 0.20 | 62 | 1010.0 |
| 20260505093036 | 52 | 36 | 0.9 | 7.8 | 0.00 | 0.52 | 0.20 | 63 | 1009.8 |
| 20260505092525 | 52 | 21 | 2.6 | 10.4 | 0.00 | 0.52 | 0.20 | 61 | 1009.4 |
| 20260505092025 | 52 | 76 | 2.6 | 10.4 | 0.00 | 0.52 | 0.20 | 63 | 1009.4 |
| 20260505091538 | 52 | 14 | 1.7 | 9.6 | 0.00 | 0.52 | 0.20 | 63 | 1009.4 |
| 20260505091027 | 52 | 17 | 1.7 | 9.6 | 0.00 | 0.52 | 0.20 | 64 | 1009.1 |
| 20260505090524 | 52 | 351 | 1.7 | 9.6 | 0.00 | 0.52 | 0.20 | 65 | 1009.1 |
| 20260505090034 | 51 | 40 | 3.5 | 6.1 | 0.00 | 0.52 | 0.20 | 67 | 1009.2 |
| 20260505085526 | 51 | 0 | 0.9 | 8.7 | 0.00 | 0.52 | 0.20 | 70 | 1009.1 |
| 20260505085024 | 51 | 0 | 0.9 | 8.7 | 0.00 | 0.52 | 0.20 | 70 | 1008.9 |
| 20260505084555 | 51 | 15 | 2.6 | 8.7 | 0.00 | 0.52 | 0.20 | 71 | 1008.6 |
| 20260505084025 | 51 | 40 | 2.6 | 8.7 | 0.00 | 0.52 | 0.20 | 72 | 1008.3 |
| 20260505083529 | 51 | 34 | 2.6 | 7.8 | 0.00 | 0.52 | 0.20 | 72 | 1008.2 |
| 20260505083057 | 51 | 9 | 1.7 | 11.3 | 0.00 | 0.52 | 0.20 | 73 | 1008.0 |
| 20260505082525 | 51 | 36 | 1.7 | 11.3 | 0.00 | 0.52 | 0.20 | 74 | 1007.8 |
| 20260505082024 | 50 | 348 | 1.7 | 8.7 | 0.01 | 0.52 | 0.20 | 76 | 1007.6 |
| 20260505081553 | 50 | 46 | 1.7 | 7.8 | 0.02 | 0.52 | 0.20 | 77 | 1007.2 |
| 20260505081025 | 50 | 0 | 0.9 | 9.6 | 0.03 | 0.52 | 0.20 | 78 | 1007.1 |
| 20260505080525 | 50 | 0 | 0.9 | 9.6 | 0.05 | 0.52 | 0.20 | 79 | 1007.1 |
| 20260505080044 | 50 | 36 | 2.6 | 9.6 | 0.06 | 0.52 | 0.20 | 81 | 1007.0 |
| 20260505075524 | 50 | 0 | 0.0 | 10.4 | 0.09 | 0.52 | 0.20 | 82 | 1007.0 |
| 20260505075023 | 50 | 0 | 2.6 | 13.0 | 0.10 | 0.52 | 0.20 | 82 | 1007.0 |
| 20260505074535 | 50 | 40 | 4.3 | 13.0 | 0.11 | 0.52 | 0.20 | 84 | 1006.9 |
| 20260505074024 | 50 | 0 | 4.3 | 10.4 | 0.15 | 0.52 | 0.20 | 86 | 1006.7 |
| 20260505073521 | 50 | 38 | 1.7 | 5.2 | 0.15 | 0.52 | 0.20 | 85 | 1007.9 |
| 20260505073048 | 50 | 0 | 0.0 | 0.9 | 0.16 | 0.52 | 0.20 | 85 | 1009.5 |
| 20260505072523 | 50 | 0 | 0.0 | 0.0 | 0.16 | 0.52 | 0.20 | 84 | 1009.3 |
| 20260505072024 | 51 | 0 | 0.0 | 0.0 | 0.15 | 0.51 | 0.19 | 83 | 1008.5 |
| 20260505071545 | 51 | 0 | 0.0 | 3.5 | 0.14 | 0.50 | 0.18 | 81 | 1008.6 |
| 20260505071023 | 51 | 0 | 0.0 | 3.5 | 0.12 | 0.48 | 0.16 | 81 | 1008.5 |
| 20260505070528 | 52 | 0 | 0.9 | 3.5 | 0.11 | 0.47 | 0.15 | 79 | 1008.3 |
| 20260505070044 | 53 | 68 | 0.0 | 9.6 | 0.09 | 0.45 | 0.13 | 77 | 1009.0 |
| 20260505065523 | 53 | 0 | 0.0 | 10.4 | 0.07 | 0.43 | 0.11 | 73 | 1009.5 |
| 20260505065023 | 54 | 0 | 2.6 | 11.3 | 0.06 | 0.42 | 0.10 | 69 | 1009.8 |
| 20260505064536 | 56 | 35 | 4.3 | 12.2 | 0.05 | 0.41 | 0.09 | 65 | 1009.5 |
| 20260505064026 | 57 | 344 | 1.7 | 13.0 | 0.01 | 0.37 | 0.05 | 58 | 1009.4 |
| 20260505063523 | 58 | 9 | 5.2 | 13.0 | 0.01 | 0.37 | 0.05 | 55 | 1008.6 |
| 20260505063040 | 60 | 0 | 4.3 | 17.4 | 0.00 | 0.36 | 0.04 | 51 | 1007.8 |
| 20260505062521 | 61 | 53 | 6.1 | 17.4 | 0.00 | 0.36 | 0.04 | 47 | 1007.5 |
| 20260505062024 | 61 | 10 | 4.3 | 11.3 | 0.00 | 0.36 | 0.04 | 46 | 1007.6 |
| 20260505061535 | 62 | 19 | 4.3 | 13.0 | 0.00 | 0.36 | 0.04 | 46 | 1007.7 |
| 20260505061024 | 62 | 59 | 3.5 | 13.9 | 0.00 | 0.36 | 0.04 | 46 | 1007.2 |
| 20260505060524 | 62 | 33 | 6.1 | 15.6 | 0.01 | 0.36 | 0.04 | 46 | 1007.2 |
| 20260505060056 | 62 | 19 | 5.2 | 15.6 | 0.03 | 0.36 | 0.04 | 49 | 1007.0 |
| 20260505055527 | 62 | 19 | 5.2 | 15.6 | 0.05 | 0.36 | 0.04 | 48 | 1006.4 |
| 20260505055023 | 62 | 22 | 6.1 | 14.8 | 0.07 | 0.36 | 0.04 | 52 | 1006.1 |
| 20260505054540 | 62 | 28 | 4.3 | 11.3 | 0.21 | 0.36 | 0.04 | 56 | 1005.9 |
| 20260505054027 | 61 | 29 | 4.3 | 15.6 | 0.27 | 0.36 | 0.04 | 56 | 1005.7 |
| 20260505053525 | 61 | 37 | 4.3 | 15.6 | 0.36 | 0.36 | 0.04 | 58 | 1005.7 |
| 20260505053038 | 60 | 32 | 3.5 | 11.3 | 0.36 | 0.36 | 0.04 | 66 | 1005.8 |
| 20260505052523 | 59 | 24 | 4.3 | 10.4 | 0.36 | 0.36 | 0.04 | 70 | 1005.7 |
| 20260505052024 | 58 | 349 | 1.7 | 4.3 | 0.36 | 0.36 | 0.04 | 80 | 1005.8 |
| 20260505051535 | 58 | 0 | 0.9 | 4.3 | 0.36 | 0.36 | 0.04 | 84 | 1005.5 |
| 20260505051022 | 58 | 0 | 0.0 | 3.5 | 0.36 | 0.36 | 0.04 | 84 | 1005.3 |
| 20260505050524 | 58 | 0 | 0.0 | 0.0 | 0.35 | 0.35 | 0.03 | 83 | 1005.4 |
| 20260505041549 | 71 | 26 | 3.5 | 9.6 | 0.00 | 0.00 | 0.00 | 51 | 1004.3 |
| 20260505041023 | 71 | 300 | 3.5 | 8.7 | 0.00 | 0.00 | 0.00 | 56 | 1004.2 |
| 20260505040530 | 71 | 0 | 1.7 | 7.0 | 0.00 | 0.00 | 0.00 | 62 | 1004.4 |
| 20260505040041 | 71 | 0 | 0.9 | 7.8 | 0.00 | 0.00 | 0.00 | 64 | 1004.5 |
| 20260505035527 | 70 | 352 | 1.7 | 7.8 | 0.00 | 0.00 | 0.00 | 65 | 1004.3 |
| 20260505035023 | 70 | 24 | 0.9 | 4.3 | 0.00 | 0.00 | 0.00 | 68 | 1004.4 |
| 20260505034537 | 70 | 11 | 0.0 | 2.6 | 0.00 | 0.00 | 0.00 | 69 | 1004.3 |
| 20260505034027 | 70 | 0 | 0.0 | 0.0 | 0.00 | 0.00 | 0.00 | 68 | 1003.9 |
| 20260505033523 | 70 | 0 | 0.0 | 0.0 | 0.00 | 0.00 | 0.00 | 68 | 1003.7 |
| 20260505033037 | 70 | 0 | 0.0 | 0.0 | 0.00 | 0.00 | 0.00 | 68 | 1003.6 |
| 20260505032523 | 70 | 0 | 0.0 | 0.0 | 0.00 | 0.00 | 0.00 | 68 | 1003.6 |
| 20260505032023 | 71 | 0 | 0.0 | 0.0 | 0.00 | 0.00 | 0.00 | 68 | 1003.7 |
| 20260505031536 | 71 | 0 | 0.0 | 0.0 | 0.00 | 0.00 | 0.00 | 67 | 1003.6 |
| 20260505031024 | 71 | 0 | 0.0 | 0.0 | 0.00 | 0.00 | 0.00 | 67 | 1003.6 |
| 20260505030524 | 71 | 0 | 0.0 | 0.0 | 0.00 | 0.00 | 0.00 | 66 | 1003.6 |
| 20260505030044 | 71 | 0 | 0.0 | 0.0 | 0.00 | 0.00 | 0.00 | 66 | 1003.6 |
| 20260505025526 | 72 | 0 | 0.0 | 0.9 | 0.00 | 0.00 | 0.00 | 65 | 1003.5 |
| 20260505025023 | 72 | 0 | 0.0 | 0.9 | 0.00 | 0.00 | 0.00 | 65 | 1003.4 |
| 20260505024534 | 72 | 0 | 0.0 | 0.9 | 0.00 | 0.00 | 0.00 | 64 | 1003.3 |
| 20260505024023 | 72 | 0 | 0.0 | 0.0 | 0.00 | 0.00 | 0.00 | 64 | 1003.2 |
| 20260505023522 | 72 | 0 | 0.0 | 2.6 | 0.00 | 0.00 | 0.00 | 64 | 1003.2 |
| 20260505023034 | 72 | 0 | 0.0 | 3.5 | 0.00 | 0.00 | 0.00 | 64 | 1003.2 |
| 20260505022524 | 72 | 0 | 0.0 | 3.5 | 0.00 | 0.00 | 0.00 | 64 | 1003.1 |
| 20260505022023 | 72 | 0 | 0.0 | 0.0 | 0.00 | 0.00 | 0.00 | 64 | 1003.1 |
| 20260505021537 | 71 | 0 | 0.0 | 0.0 | 0.00 | 0.00 | 0.00 | 64 | 1003.0 |
| 20260505021021 | 71 | 0 | 0.0 | 0.0 | 0.00 | 0.00 | 0.00 | 64 | 1003.1 |
| 20260505020521 | 71 | 0 | 0.0 | 0.0 | 0.00 | 0.00 | 0.00 | 64 | 1002.9 |
| 20260505020040 | 71 | 0 | 0.0 | 0.0 | 0.00 | 0.00 | 0.00 | 64 | 1002.9 |
| 20260505015524 | 72 | 0 | 0.0 | 0.0 | 0.00 | 0.00 | 0.00 | 63 | 1002.8 |
| 20260505015024 | 72 | 0 | 0.0 | 0.0 | 0.00 | 0.00 | 0.00 | 61 | 1002.8 |
| 20260505014559 | 72 | 0 | 0.0 | 0.0 | 0.00 | 0.00 | 0.00 | 60 | 1002.7 |
| 20260505014024 | 73 | 0 | 0.0 | 0.0 | 0.00 | 0.00 | 0.00 | 58 | 1002.8 |
| 20260505013522 | 73 | 0 | 0.0 | 0.0 | 0.00 | 0.00 | 0.00 | 57 | 1002.7 |
| 20260505013046 | 73 | 0 | 0.0 | 0.0 | 0.00 | 0.00 | 0.00 | 56 | 1002.7 |
| 20260505012527 | 74 | 0 | 0.0 | 0.0 | 0.00 | 0.00 | 0.00 | 54 | 1002.5 |
| 20260505012023 | 74 | 0 | 0.0 | 0.0 | 0.00 | 0.00 | 0.00 | 55 | 1002.4 |
| 20260505011540 | 75 | 0 | 0.0 | 0.0 | 0.00 | 0.00 | 0.00 | 54 | 1002.2 |
| 20260505011025 | 75 | 0 | 0.0 | 0.0 | 0.00 | 0.00 | 0.00 | 53 | 1002.2 |
| 20260505010522 | 75 | 0 | 0.0 | 0.0 | 0.00 | 0.00 | 0.00 | 52 | 1002.1 |
| 20260505010051 | 76 | 0 | 0.0 | 0.0 | 0.00 | 0.00 | 0.00 | 51 | 1002.1 |
| 20260505005525 | 76 | 0 | 0.0 | 0.0 | 0.00 | 0.00 | 0.00 | 51 | 1002.1 |
| 20260505005023 | 76 | 0 | 0.0 | 0.0 | 0.00 | 0.00 | 0.00 | 50 | 1002.0 |
| 20260505004546 | 77 | 0 | 0.0 | 0.0 | 0.00 | 0.00 | 0.00 | 50 | 1002.1 |
| 20260505004025 | 77 | 0 | 0.0 | 0.0 | 0.00 | 0.00 | 0.00 | 50 | 1002.1 |
| 20260505003523 | 77 | 0 | 0.0 | 0.0 | 0.00 | 0.00 | 0.00 | 48 | 1002.0 |
| 20260505003052 | 78 | 0 | 0.0 | 0.0 | 0.00 | 0.00 | 0.00 | 48 | 1002.0 |
| 20260505002523 | 78 | 0 | 0.0 | 0.0 | 0.00 | 0.00 | 0.00 | 48 | 1002.0 |
| 20260505002023 | 78 | 0 | 0.0 | 0.0 | 0.00 | 0.00 | 0.00 | 47 | 1001.9 |
| 20260505001537 | 79 | 0 | 0.0 | 0.0 | 0.00 | 0.00 | 0.00 | 47 | 1001.9 |
| 20260505001024 | 79 | 0 | 0.0 | 0.0 | 0.00 | 0.00 | 0.00 | 47 | 1001.9 |
| 20260505000523 | 80 | 0 | 0.0 | 0.0 | 0.00 | 0.00 | 0.00 | 46 | 1002.0 |
| 20260505000037 | 80 | 0 | 0.0 | 0.0 | 0.00 | 0.00 | 0.00 | 45 | 1002.0 |
| 20260504235523 | 80 | 0 | 0.0 | 1.7 | 0.00 | 0.00 | 0.00 | 45 | 1002.0 |
| 20260504235023 | 80 | 0 | 0.0 | 1.7 | 0.00 | 0.00 | 0.00 | 46 | 1002.0 |
| 20260504234538 | 80 | 0 | 0.0 | 0.0 | 0.00 | 0.00 | 0.00 | 46 | 1002.0 |
| 20260504234021 | 80 | 0 | 0.0 | 0.0 | 0.00 | 0.00 | 0.00 | 47 | 1002.0 |
| 20260504233524 | 80 | 0 | 0.0 | 0.0 | 0.00 | 0.00 | 0.00 | 46 | 1002.0 |
| 20260504233037 | 80 | 0 | 0.0 | 2.6 | 0.00 | 0.00 | 0.00 | 47 | 1002.0 |
| 20260504232527 | 80 | 0 | 0.0 | 2.6 | 0.00 | 0.00 | 0.00 | 46 | 1002.0 |
| 20260504232021 | 80 | 0 | 0.0 | 2.6 | 0.00 | 0.00 | 0.00 | 45 | 1002.1 |
| 20260504231537 | 80 | 0 | 0.0 | 0.9 | 0.00 | 0.00 | 0.00 | 45 | 1001.9 |
| 20260504231022 | 80 | 158 | 0.0 | 0.9 | 0.00 | 0.00 | 0.00 | 46 | 1002.0 |
| 20260504230524 | 80 | 0 | 0.0 | 7.0 | 0.00 | 0.00 | 0.00 | 44 | 1002.1 |
| 20260504230035 | 80 | 0 | 0.0 | 7.0 | 0.00 | 0.00 | 0.00 | 44 | 1002.1 |
| 20260504225523 | 81 | 0 | 0.0 | 6.1 | 0.00 | 0.00 | 0.00 | 43 | 1002.1 |
| 20260504225021 | 81 | 217 | 0.0 | 6.1 | 0.00 | 0.00 | 0.00 | 43 | 1002.0 |
| 20260504224534 | 82 | 0 | 0.9 | 7.8 | 0.00 | 0.00 | 0.00 | 40 | 1002.1 |
| 20260504224023 | 82 | 19 | 1.7 | 7.8 | 0.00 | 0.00 | 0.00 | 40 | 1002.1 |
| 20260504223523 | 83 | 178 | 0.9 | 5.2 | 0.00 | 0.00 | 0.00 | 41 | 1002.0 |
| 20260504223055 | 83 | 0 | 0.0 | 4.3 | 0.00 | 0.00 | 0.00 | 41 | 1002.0 |
| 20260504222523 | 83 | 328 | 0.9 | 4.3 | 0.00 | 0.00 | 0.00 | 40 | 1002.1 |
| 20260504222023 | 82 | 0 | 0.0 | 4.3 | 0.00 | 0.00 | 0.00 | 39 | 1002.1 |
| 20260504221537 | 82 | 0 | 0.9 | 4.3 | 0.00 | 0.00 | 0.00 | 38 | 1002.2 |
| 20260504221024 | 82 | 0 | 0.9 | 6.1 | 0.00 | 0.00 | 0.00 | 37 | 1002.2 |
| 20260504220521 | 83 | 0 | 0.9 | 6.1 | 0.00 | 0.00 | 0.00 | 36 | 1002.1 |
| 20260504220036 | 83 | 225 | 0.9 | 5.2 | 0.00 | 0.00 | 0.00 | 40 | 1002.2 |
| 20260504215522 | 83 | 0 | 0.9 | 4.3 | 0.00 | 0.00 | 0.00 | 40 | 1002.2 |
| 20260504215026 | 82 | 40 | 1.7 | 8.7 | 0.00 | 0.00 | 0.00 | 41 | 1002.3 |
| 20260504214537 | 82 | 292 | 0.9 | 8.7 | 0.00 | 0.00 | 0.00 | 41 | 1002.3 |
| 20260504214027 | 82 | 190 | 2.6 | 7.0 | 0.00 | 0.00 | 0.00 | 41 | 1002.3 |
| 20260504213523 | 82 | 342 | 1.7 | 13.0 | 0.00 | 0.00 | 0.00 | 41 | 1002.4 |
| 20260504213036 | 81 | 308 | 1.7 | 13.0 | 0.00 | 0.00 | 0.00 | 41 | 1002.4 |
| 20260504212523 | 81 | 180 | 0.9 | 7.0 | 0.00 | 0.00 | 0.00 | 41 | 1002.5 |
| 20260504212024 | 81 | 289 | 0.9 | 6.1 | 0.00 | 0.00 | 0.00 | 42 | 1002.7 |
| 20260504211551 | 81 | 0 | 0.0 | 7.8 | 0.00 | 0.00 | 0.00 | 43 | 1002.7 |
| 20260504211023 | 81 | 186 | 2.6 | 7.8 | 0.00 | 0.00 | 0.00 | 41 | 1002.8 |
| 20260504210524 | 82 | 289 | 0.0 | 7.0 | 0.00 | 0.00 | 0.00 | 41 | 1002.8 |
| 20260504210043 | 81 | 267 | 0.9 | 7.0 | 0.00 | 0.00 | 0.00 | 41 | 1002.7 |
| 20260504205523 | 82 | 5 | 0.9 | 7.0 | 0.00 | 0.00 | 0.00 | 41 | 1002.8 |
| 20260504205023 | 82 | 81 | 1.7 | 7.0 | 0.00 | 0.00 | 0.00 | 41 | 1002.7 |
| 20260504204535 | 82 | 261 | 0.0 | 6.1 | 0.00 | 0.00 | 0.00 | 42 | 1002.7 |
| 20260504204023 | 82 | 317 | 0.0 | 7.0 | 0.00 | 0.00 | 0.00 | 40 | 1002.8 |
| 20260504203522 | 82 | 159 | 0.9 | 7.0 | 0.00 | 0.00 | 0.00 | 41 | 1002.8 |
| 20260504203037 | 82 | 10 | 0.9 | 7.0 | 0.00 | 0.00 | 0.00 | 41 | 1002.8 |
| 20260504202523 | 82 | 121 | 0.9 | 5.2 | 0.00 | 0.00 | 0.00 | 40 | 1002.9 |
| 20260504202024 | 82 | 300 | 0.9 | 6.1 | 0.00 | 0.00 | 0.00 | 40 | 1002.9 |
| 20260504201534 | 83 | 91 | 1.7 | 6.1 | 0.00 | 0.00 | 0.00 | 38 | 1003.0 |
| 20260504201024 | 83 | 186 | 0.9 | 6.1 | 0.00 | 0.00 | 0.00 | 39 | 1003.1 |
| 20260504200523 | 83 | 0 | 0.9 | 9.6 | 0.00 | 0.00 | 0.00 | 38 | 1003.0 |
| 20260504200036 | 83 | 348 | 0.9 | 9.6 | 0.00 | 0.00 | 0.00 | 38 | 1003.1 |
| 20260504195522 | 83 | 167 | 2.6 | 8.7 | 0.00 | 0.00 | 0.00 | 36 | 1003.0 |
| 20260504195023 | 83 | 0 | 1.7 | 6.1 | 0.00 | 0.00 | 0.00 | 36 | 1003.1 |
| 20260504194542 | 83 | 298 | 0.9 | 5.2 | 0.00 | 0.00 | 0.00 | 36 | 1003.1 |
| 20260504194024 | 83 | 275 | 0.9 | 8.7 | 0.00 | 0.00 | 0.00 | 36 | 1003.2 |
| 20260504193524 | 82 | 270 | 1.7 | 8.7 | 0.00 | 0.00 | 0.00 | 37 | 1003.2 |
| 20260504193038 | 82 | 158 | 0.9 | 7.0 | 0.00 | 0.00 | 0.00 | 37 | 1003.1 |
| 20260504192522 | 82 | 320 | 2.6 | 7.0 | 0.00 | 0.00 | 0.00 | 39 | 1003.2 |
| 20260504192021 | 82 | 209 | 0.9 | 6.1 | 0.00 | 0.00 | 0.00 | 39 | 1003.2 |
| 20260504191537 | 82 | 282 | 0.9 | 5.2 | 0.00 | 0.00 | 0.00 | 39 | 1003.2 |
| 20260504191025 | 82 | 94 | 0.9 | 7.8 | 0.00 | 0.00 | 0.00 | 41 | 1003.3 |
| 20260504190523 | 81 | 292 | 0.9 | 8.7 | 0.00 | 0.00 | 0.00 | 41 | 1003.3 |
| 20260504190038 | 81 | 309 | 3.5 | 8.7 | 0.00 | 0.00 | 0.00 | 42 | 1003.3 |
| 20260504185524 | 81 | 146 | 2.6 | 7.8 | 0.00 | 0.00 | 0.00 | 42 | 1003.3 |
| 20260504185024 | 81 | 284 | 1.7 | 7.8 | 0.00 | 0.00 | 0.00 | 42 | 1003.2 |
| 20260504184548 | 81 | 188 | 1.7 | 7.0 | 0.00 | 0.00 | 0.00 | 42 | 1003.3 |
| 20260504184026 | 81 | 0 | 0.9 | 7.0 | 0.00 | 0.00 | 0.00 | 42 | 1003.3 |
| 20260504183524 | 80 | 348 | 2.6 | 8.7 | 0.00 | 0.00 | 0.00 | 43 | 1003.3 |
| 20260504183036 | 80 | 0 | 1.7 | 12.2 | 0.00 | 0.00 | 0.00 | 40 | 1003.3 |
| 20260504182523 | 79 | 99 | 4.3 | 12.2 | 0.00 | 0.00 | 0.00 | 41 | 1003.4 |
| 20260504182027 | 80 | 140 | 2.6 | 11.3 | 0.00 | 0.00 | 0.00 | 41 | 1003.4 |
| 20260504181536 | 80 | 0 | 0.9 | 11.3 | 0.00 | 0.00 | 0.00 | 43 | 1003.4 |
| 20260504181026 | 79 | 232 | 1.7 | 11.3 | 0.00 | 0.00 | 0.00 | 42 | 1003.4 |
| 20260504180526 | 79 | 146 | 1.7 | 8.7 | 0.00 | 0.00 | 0.00 | 45 | 1003.4 |
| 20260504180035 | 78 | 243 | 1.7 | 8.7 | 0.00 | 0.00 | 0.00 | 44 | 1003.5 |
| 20260504175524 | 79 | 292 | 1.7 | 7.8 | 0.00 | 0.00 | 0.00 | 43 | 1003.5 |
| 20260504175029 | 79 | 290 | 0.9 | 6.1 | 0.00 | 0.00 | 0.00 | 44 | 1003.6 |
| 20260504174540 | 79 | 328 | 1.7 | 6.1 | 0.00 | 0.00 | 0.00 | 44 | 1003.6 |
| 20260504174024 | 79 | 0 | 0.9 | 7.8 | 0.00 | 0.00 | 0.00 | 43 | 1003.6 |
| 20260504173526 | 78 | 0 | 1.7 | 7.8 | 0.00 | 0.00 | 0.00 | 45 | 1003.6 |
| 20260504173037 | 78 | 207 | 1.7 | 7.8 | 0.00 | 0.00 | 0.00 | 44 | 1003.6 |
| 20260504172525 | 78 | 346 | 1.7 | 7.8 | 0.00 | 0.00 | 0.00 | 45 | 1003.6 |
| 20260504172025 | 78 | 140 | 1.7 | 7.0 | 0.00 | 0.00 | 0.00 | 44 | 1003.7 |
| 20260504171537 | 77 | 120 | 1.7 | 8.7 | 0.00 | 0.00 | 0.00 | 45 | 1003.7 |
| 20260504171025 | 77 | 0 | 2.6 | 8.7 | 0.00 | 0.00 | 0.00 | 47 | 1003.9 |
| 20260504170524 | 77 | 123 | 0.9 | 10.4 | 0.00 | 0.00 | 0.00 | 46 | 1003.8 |
| 20260504151025 | 71 | 284 | 0.9 | 6.1 | 0.00 | 0.00 | 0.00 | 56 | 1004.0 |
| 20260504150526 | 71 | 182 | 0.0 | 10.4 | 0.00 | 0.00 | 0.00 | 55 | 1003.9 |